Regional Weather Roundup
Issued by NWS Boston, MA

Current Version | Previous Version | Text Only | Print | Product List | Glossary Off
Versions: 1 2 3 4 5 6 7 8 9 10 11 12 13 14 15 16 17 18 19 20 21 22 23 24 25 26 27 28 29 30 31 32 33 34 35 36 37 38 39 40 41 42 43 44 45 46 47 48 49 50
091 ASUS41 KBOX 291310 RWRBOX REGIONAL WEATHER ROUNDUP NATIONAL WEATHER SERVICE TAUNTON MA 900 AM EDT MON MAY 29 2017 NOTE: "FAIR" INDICATES FEW OR NO CLOUDS BELOW 12,000 FEET WITH NO SIGNIFICANT WEATHER AND/OR OBSTRUCTIONS TO VISIBILITY. MAZALL-291400- EASTERN MASSACHUSETTS CITY SKY/WX TMP DP RH WIND PRES REMARKS BOSTON FOG 49 49 100 E14 30.03S VSB 1/2 BEVERLY CLOUDY 51 49 92 E10 30.02F FOG LAWRENCE CLOUDY 54 49 83 E10 30.04S BEDFORD N/A 50 47 89 E13 30.01R FOG BLUE HILL N/A 49 47 93 E10 29.99F NORWOOD CLOUDY 53 50 89 E6 30.01R MARSHFIELD CLOUDY 50 50 100 E7G14 30.02S PLYMOUTH CLOUDY 50 47 89 E9 30.00F TAUNTON LGT RAIN 52 48 86 E7 29.99S NEW BEDFORD RAIN 50 49 96 NE10 29.97F FOG $$ MAZALL-291400- CAPE COD AND THE ISLANDS CITY SKY/WX TMP DP RH WIND PRES REMARKS FALMOUTH N/A N/A N/A N/A MISG N/A HYANNIS LGT RAIN 49 48 97 E7 29.98S CHATHAM LGT RAIN 49 49 100 E10 30.02S PROVINCETOWN CLOUDY 49 47 93 E14 30.02F NANTUCKET LGT RAIN 49 47 93 NE15 29.98F MARTHAS VNYRD RAIN 50 48 93 E13 29.97F $$ MAZALL-291400- CENTRAL AND WESTERN MASSACHUSETTS CITY SKY/WX TMP DP RH WIND PRES REMARKS WORCESTER CLOUDY 50 47 89 E7 29.99S FITCHBURG CLOUDY 56 50 80 E8 30.01S ORANGE CLOUDY 55 49 80 SE5 29.98S SPRINGFIELD CLOUDY 55 49 78 E7 29.96S WESTFIELD NOT AVBL NORTH ADAMS N/A N/A N/A N/A MISG 29.94R $$ RIZALL-291400- RHODE ISLAND CITY SKY/WX TMP DP RH WIND PRES REMARKS PROVIDENCE LGT RAIN 51 51 100 NE10 29.98F FOG NEWPORT LGT RAIN 50 50 100 E13 29.96F BLOCK ISLAND CLOUDY 51 50 96 E14G21 29.96R SMITHFIELD LGT RAIN 51 49 92 E8 29.98F WESTERLY LGT RAIN 54 51 90 E12 29.96S $$ CTZALL-291400- CONNECTICUT CITY SKY/WX TMP DP RH WIND PRES REMARKS BRADLEY INTL CLOUDY 57 49 74 E7 29.96S HARTFORD CLOUDY 56 50 80 E3 29.96R BRIDGEPORT CLOUDY 56 52 86 E21 29.93R DANBURY CLOUDY 54 51 90 E7 29.94R GROTON RAIN 53 50 89 NE14 29.94S FOG NEW HAVEN CLOUDY 54 52 93 E7 29.94R FOG CHESTER LGT RAIN 52 52 100 NE7 29.95R MERIDEN CLOUDY 54 51 90 E3 29.95R WILLIMANTIC CLOUDY 56 51 84 NE7 29.96S OXFORD CLOUDY 54 46 76 SE7 29.95R $$ MEZ002-015-021-024-NHZ003-005-008-011-012-014-VTZ005-008-291400- NORTHERN NEW ENGLAND CITY SKY/WX TMP DP RH WIND PRES REMARKS PORTLAND ME FOG 47 46 97 E10 30.09S VSB 3/4 BANGOR ME CLOUDY 47 45 93 S7 30.14R CONCORD NH CLOUDY 54 49 83 E9 30.02S MANCHESTER NH CLOUDY 55 47 74 E10 30.01R NASHUA NH CLOUDY 55 50 83 SE9 30.02S PORTSMOUTH NH CLOUDY 49 47 93 E9 30.04R FOG JAFFREY NH CLOUDY 53 49 86 VRB7 29.99F KEENE NH PTSUNNY 56 48 74 VRB3 29.98F BURLINGTON VT CLOUDY 64 52 64 S13 29.89R MT. WASHINGTON FOG 39 39 100 SE25G37 N/A VSB 1/16WCI 28 $$ NYZ052-076-291400- EASTERN NEW YORK CITY SKY/WX TMP DP RH WIND PRES REMARKS ALBANY CLOUDY 56 51 84 SE6 29.93R NEW YORK CITY LGT RAIN 58 54 86 E10 29.90R $$ ANZALL-291400- MARINE OBSERVATIONS STATION/POSITION TIME TEMP WIND PRES VSBY WAVE AIR SEA DIR/SP/G HT/PER (UTC) (F) (DEG/KT/KT) (MB) (MI) (FT/S) BOSTON BUOY 1150 48 51 90/ 14/ 16 1016.0 3/ 8 BUZZARDS BAY 1200 50 80/ 17/ 18 1015.4R NANTUCKET SOUND 1250 53 1015.6R 2/ 3 MASS BAY-STELLWA 1204 48 51 90/ 12/ 16 1016.3F 4/ 4 ISLE OF SHOALS 1200 47 110/ 14/ 15 1017.2R S OF BLOCK IS 1225 53 N/A 5/ 5 $$ ......................KEY......................... SKY/WX - SKY CONDITION/PRESENT WEATHER TMP - TEMPERATURE IN FAHRENHEIT DWPT - DEWPOINT IN FAHRENHEIT RH - RELATIVE HUMIDITY IN PERCENT WIND - DIRECTION AND SPEED IN MPH PRES - MEAN SEA LEVEL PRESSURE IN INCHES OF HG WCI - WIND CHILL INDEX VSB - VISIBILITY IN MILES HX - HEAT INDEX TC - TEMPERATURE IN CELSIUS VRB - VARIABLE WIND DIRECTION N/A - NOT AVAILABLE

USA.gov is the U.S. government's official web portal to all federal, state and local government web resources and services.